Selinsgrove, PA

4:47 PM EST on December 05, 2019 (GMT -0500)
Penn Valley

Weather History for KSEG - October, 2019

Change the Weather History Date:

Wednesday, October 30, 2019

  Actual Average (WUND) Record (WUND)
Temperature  
Mean Temperature 60 °F -  
Max Temperature 62 °F - - (-1)
Min Temperature 57 °F - - (-1)
Degree Days  
Heating Degree Days 6    
Growing Degree Days 10 (Base 50)    
Moisture  
Dew Point 54 °F    
Average Humidity 83    
Maximum Humidity 97    
Minimum Humidity 72    
Precipitation  
Precipitation 0.40 in - - ()
Sea Level Pressure  
Sea Level Pressure 30.18 in    
Wind  
Wind Speed 1 mph (SE)    
Max Wind Speed 6 mph    
Max Gust Speed -    
Visibility 9 miles    
Events Rain    
Averages and records for this station are not official NWS values.
T = Trace of Precipitation, MM = Missing Value Source: NWS Daily Summary

Daily Weather History Graph

Daily Weather History Graph

Search for Another Location

Airport or City:

Astronomy

Oct. 30, 2019 Rise Set
Actual Time 7:35 AM EDT 6:06 PM EDT
Civil Twilight 7:06 AM EDT 6:34 PM EDT
Nautical Twilight 6:34 AM EDT 7:06 PM EDT
Astronomical Twilight 6:02 AM EDT 7:38 PM EDT
Moon 10:16 AM EDT (10/30) 8:11 PM EDT (10/30)
Length of Visible Light 11h 27m
Length of Day
10h 30m
Waxing Crescent, 8% of the Moon is Illuminated
Oct 30
Waxing Crescent
Nov 4
First Quarter
Nov 12
Full
Nov 19
Last Quarter
Nov 26
New

Hourly Weather History & Observations

Time (EDT) Temp. Dew Point Humidity Pressure Visibility Wind Dir Wind Speed Gust Speed Precip Events Conditions
12:53 AM 57.0 °F 52.0 °F 83% 30.27 in 10.0 mi Calm Calm - N/A   Overcast
1:53 AM 57.0 °F 52.0 °F 83% 30.26 in 10.0 mi Calm Calm - N/A   Overcast
2:53 AM 57.0 °F 53.1 °F 87% 30.26 in 10.0 mi Calm Calm - N/A   Overcast
3:53 AM 57.0 °F 53.1 °F 87% 30.26 in 10.0 mi Calm Calm - N/A   Overcast
4:53 AM 57.0 °F 53.1 °F 87% 30.25 in 10.0 mi Calm Calm - N/A   Overcast
5:53 AM 57.0 °F 53.1 °F 87% 30.25 in 10.0 mi Calm Calm - N/A   Overcast
6:53 AM 57.0 °F 53.1 °F 87% 30.27 in 10.0 mi Calm Calm - N/A   Overcast
7:53 AM 57.0 °F 53.1 °F 87% 30.26 in 9.0 mi Calm Calm - N/A   Overcast
8:53 AM 57.9 °F 52.0 °F 81% 30.27 in 10.0 mi Calm Calm - N/A   Overcast
9:53 AM 59.0 °F 53.1 °F 81% 30.27 in 9.0 mi Calm Calm - N/A   Overcast
10:53 AM 59.0 °F 52.0 °F 78% 30.28 in 10.0 mi South 4.6 mph - N/A   Overcast
11:53 AM 60.1 °F 53.1 °F 78% 30.27 in 10.0 mi SSE 5.8 mph - N/A   Overcast
12:53 PM 60.1 °F 53.1 °F 78% 30.25 in 10.0 mi SSW 3.5 mph - N/A   Overcast
1:53 PM 61.0 °F 53.1 °F 75% 30.22 in 10.0 mi ESE 4.6 mph - N/A   Overcast
2:29 PM 62.1 °F 53.1 °F 72% 30.19 in 10.0 mi ENE 5.8 mph - N/A   Overcast
2:53 PM 62.1 °F 53.1 °F 72% 30.18 in 10.0 mi Variable 5.8 mph - N/A   Mostly Cloudy
3:53 PM 62.1 °F 53.1 °F 72% 30.18 in 10.0 mi East 3.5 mph - N/A   Overcast
4:53 PM 62.1 °F 53.1 °F 72% 30.14 in 10.0 mi East 3.5 mph - N/A   Overcast
5:08 PM 62.1 °F 53.1 °F 72% 30.14 in 10.0 mi ENE 3.5 mph - N/A   Overcast
5:53 PM 61.0 °F 53.1 °F 75% 30.14 in 10.0 mi Calm Calm - N/A   Overcast
6:53 PM 59.0 °F 54.0 °F 83% 30.13 in 10.0 mi Calm Calm - N/A   Overcast
7:32 PM 59.0 °F 54.0 °F 83% 30.12 in 10.0 mi Calm Calm - N/A   Overcast
7:53 PM 59.0 °F 54.0 °F 83% 30.12 in 10.0 mi Calm Calm - N/A   Overcast
8:53 PM 57.9 °F 55.9 °F 93% 30.09 in 6.0 mi Calm Calm - 0.04 in Rain Light Rain
9:53 PM 57.9 °F 57.0 °F 97% 30.07 in 3.0 mi Calm Calm - 0.12 in Rain Rain
10:53 PM 57.9 °F 57.0 °F 97% 30.05 in 4.0 mi South 4.6 mph - 0.11 in Rain Rain
11:01 PM 59.0 °F 57.0 °F 93% 30.04 in 3.0 mi South 4.6 mph - 0.03 in Rain Rain
11:14 PM 57.9 °F 57.0 °F 97% 30.03 in 5.0 mi South 5.8 mph - 0.05 in Rain Light Rain
11:53 PM 57.9 °F 57.0 °F 97% 30.02 in 3.0 mi Variable 4.6 mph - 0.13 in Rain Rain